This is the latest recevied weather packets stored in our database for station/object WA9SDJ-13. If no packets are shown the sender has not sent any weather packets the latest 1 day(s).
| Time | Temp. | Humidity | Pressure | Rain* | Wind** | Luminosity | Snow |
|---|---|---|---|---|---|---|---|
| 1778090221 | 12.78° C | 70% | 1014.2 hPa | 0 mm | - | 317 W/m² | - |
| 1778090161 | 13.33° C | 71% | 1014.2 hPa | 0 mm | - | 311 W/m² | - |
| 1778090101 | 13.33° C | 71% | 1014.1 hPa | 0 mm | - | 310 W/m² | - |
| 1778090041 | 13.33° C | 72% | 1014.1 hPa | 0 mm | - | 306 W/m² | - |
| 1778089981 | 13.33° C | 73% | 1014.2 hPa | 0 mm | - | 304 W/m² | - |
| 1778089921 | 13.33° C | 75% | 1014.1 hPa | 0 mm | - | 297 W/m² | - |
| 1778089861 | 13.33° C | 75% | 1014.3 hPa | 0 mm | - | 295 W/m² | - |
| 1778089801 | 13.33° C | 74% | 1014.2 hPa | 0 mm | - | 294 W/m² | - |
| 1778089741 | 13.33° C | 75% | 1014.2 hPa | 0 mm | - | 295 W/m² | - |
| 1778089621 | 12.78° C | 72% | 1014.2 hPa | 0 mm | - | 299 W/m² | - |
| 1778089141 | 12.78° C | 73% | 1014.2 hPa | 0 mm | - | 280 W/m² | - |
| 1778088180 | 13.33° C | 75% | 1014.1 hPa | 0 mm | - | 301 W/m² | - |
| 1778088120 | 13.33° C | 75% | 1014.3 hPa | 0 mm | - | 306 W/m² | - |
| 1778088060 | 13.33° C | 76% | 1014.1 hPa | 0 mm | - | 304 W/m² | - |
| 1778087941 | 13.33° C | 76% | 1014.2 hPa | 0 mm | - | 288 W/m² | - |
| 1778087880 | 13.33° C | 76% | 1014.2 hPa | 0 mm | - | 281 W/m² | - |
| 1778087820 | 13.33° C | 75% | 1014.3 hPa | 0 mm | - | 281 W/m² | - |
| 1778087760 | 13.33° C | 75% | 1014.2 hPa | 0 mm | - | 283 W/m² | - |
| 1778087700 | 13.33° C | 75% | 1014.2 hPa | 0 mm | - | 276 W/m² | - |
| 1778087640 | 12.78° C | 73% | 1014.2 hPa | 0 mm | - | 271 W/m² | - |
| 1778087580 | 12.78° C | 74% | 1014.2 hPa | 0 mm | - | 267 W/m² | - |
| 1778087520 | 12.78° C | 74% | 1014.2 hPa | 0 mm | - | 262 W/m² | - |
| 1778087460 | 12.78° C | 75% | 1014.3 hPa | 0 mm | - | 255 W/m² | - |
| 1778087401 | 12.78° C | 76% | 1014.2 hPa | 0 mm | - | 244 W/m² | - |
| 1778087340 | 12.78° C | 76% | 1014.1 hPa | 0 mm | - | 237 W/m² | - |
* Rain latest hour (hover to see other rain measurements)
** Current wind speed in m/s (hover to see current wind gust speed)